Zurück zum Katalog

STARLINK-11302

AktivKommunikationVLEO
NORAD 61204·PAYLOAD·🇺🇸 United States

Gestartet Sep 20, 2024 von Vandenberg Space Force Base

Loading…

Nächste Überflüge (nächste 24 Stunden)

TLE

AktuellSource: CelesTrak SupGP

Epoche: Sep 14, 2026, 21:18 UTC

1 61204C 24171E   26257.88798611 -.00068268  00000+0 -56215-3 0  2578
2 61204  53.1562 323.5449 0001218  70.5237 338.2465 15.69751856    18

Verfolge STARLINK-11302 in Echtzeit mit AllMySat

Download on the App Store